This is the latest recevied weather packets stored in our database for station/object DL6MAA-11. If no packets are shown the sender has not sent any weather packets the latest 10 day(s).
| Time | Temp. | Humidity | Pressure | Rain* | Wind** | Luminosity | Snow |
|---|---|---|---|---|---|---|---|
| 1777718833 | 22.78° C | 35% | 1019 hPa | 0 mm | - | 555 W/m² | - |
| 1777718539 | 23.33° C | 37% | 1019.1 hPa | 0 mm | - | 568 W/m² | - |
| 1777718222 | 22.78° C | 38% | 1019.1 hPa | 0 mm | - | 552 W/m² | - |
| 1777717924 | 22.78° C | 36% | 1019.1 hPa | 0 mm | - | 548 W/m² | - |
| 1777717639 | 22.22° C | 35% | 1019.5 hPa | 0 mm | - | 554 W/m² | - |
| 1777717328 | 22.22° C | 36% | 1019.5 hPa | 0 mm | - | 547 W/m² | - |
| 1777717033 | 22.22° C | 36% | 1019.5 hPa | 0 mm | - | 540 W/m² | - |
| 1777716737 | 22.22° C | 34% | 1019.4 hPa | 0 mm | - | 534 W/m² | - |
| 1777716422 | 22.22° C | 36% | 1019.4 hPa | 0 mm | - | 536 W/m² | - |
| 1777716141 | 22.22° C | 36% | 1019.4 hPa | 0 mm | - | 529 W/m² | - |
| 1777715824 | 22.22° C | 36% | 1019.6 hPa | 0 mm | - | 466 W/m² | - |
| 1777715532 | 22.22° C | 36% | 1019.6 hPa | 0 mm | - | 246 W/m² | - |
| 1777715233 | 21.67° C | 37% | 1019.6 hPa | 0 mm | - | 81 W/m² | - |
| 1777714936 | 21.67° C | 38% | 1019.5 hPa | 0 mm | - | 39 W/m² | - |
| 1777714624 | 21.67° C | 37% | 1019.5 hPa | 0 mm | - | 35 W/m² | - |
| 1777714327 | 21.11° C | 39% | 1019.5 hPa | 0 mm | - | 35 W/m² | - |
| 1777714031 | 20.56° C | 40% | 1019.9 hPa | 0 mm | - | 33 W/m² | - |
| 1777713724 | 20.56° C | 39% | 1019.9 hPa | 0 mm | - | 35 W/m² | - |
| 1777713427 | 20.56° C | 41% | 1019.9 hPa | 0 mm | - | 37 W/m² | - |
| 1777713134 | 20° C | 42% | 1019.9 hPa | 0 mm | - | 37 W/m² | - |
| 1777712841 | 20° C | 42% | 1019.9 hPa | 0 mm | - | 37 W/m² | - |
| 1777712527 | 19.44° C | 43% | 1019.9 hPa | 0 mm | - | 37 W/m² | - |
| 1777712236 | 19.44° C | 44% | 1019.9 hPa | 0 mm | - | 33 W/m² | - |
| 1777711938 | 19.44° C | 44% | 1019.9 hPa | 0 mm | - | 33 W/m² | - |
| 1777711625 | 19.44° C | 46% | 1019.9 hPa | 0 mm | - | 33 W/m² | - |
* Rain since midnight (hover to see other rain measurements)
** Current wind speed in m/s (hover to see current wind gust speed)